OMD203 KMSY-KMZJ

Flight info

Callsign OMD203
Flight time 2h 56m
Altitude 38000
Route PEKON SBI IAH J2 SAT J138 FST J2 TUS
Aircraft A320/M-SDE3FGHIRWY/LB1

Departure

Time 2026-05-08 16:12
Airport Louis Armstrong New Orleans International Airport (KMSY)

Arrival

Time 2026-05-08 19:08
Airport Pinal Airpark (KMZJ)
Time Latitude Longitude Altitude Speed Heading
2026-05-08 15:52 29.99604 -90.26254 9 ft 0 kts 19°
2026-05-08 16:05 29.99607 -90.26253 8 ft 2 kts 19°
2026-05-08 16:05 29.99629 -90.26246 8 ft 4 kts
2026-05-08 16:05 29.99642 -90.26276 9 ft 6 kts 276°
2026-05-08 16:05 29.99630 -90.26328 10 ft 8 kts 241°
2026-05-08 16:06 29.99578 -90.26363 10 ft 11 kts 196°
2026-05-08 16:06 29.99491 -90.26395 9 ft 14 kts 216°
2026-05-08 16:06 29.99488 -90.26501 10 ft 15 kts 285°
2026-05-08 16:06 29.99518 -90.26626 11 ft 18 kts 286°
2026-05-08 16:07 29.99556 -90.26777 11 ft 21 kts 286°
2026-05-08 16:07 29.99600 -90.26952 12 ft 24 kts 286°
2026-05-08 16:07 29.99648 -90.27164 6 ft 30 kts 284°
2026-05-08 16:07 29.99700 -90.27376 5 ft 26 kts 285°
2026-05-08 16:08 29.99739 -90.27540 5 ft 10 kts 285°
2026-05-08 16:08 29.99753 -90.27611 5 ft 10 kts 272°
2026-05-08 16:08 29.99695 -90.27673 3 ft 15 kts 193°
2026-05-08 16:08 29.99666 -90.27682 2 ft 0 kts 196°
2026-05-08 16:09 29.99653 -90.27686 2 ft 5 kts 196°
2026-05-08 16:09 29.99602 -90.27705 0 ft 10 kts 206°
2026-05-08 16:10 29.99581 -90.27783 2 ft 12 kts 281°
2026-05-08 16:10 29.99598 -90.27879 5 ft 13 kts 281°
2026-05-08 16:10 29.99623 -90.27983 6 ft 15 kts 291°
2026-05-08 16:10 29.99658 -90.28101 6 ft 9 kts 263°
2026-05-08 16:11 29.99647 -90.28099 6 ft 3 kts 124°
2026-05-08 16:11 29.99602 -90.27909 5 ft 60 kts 107°
2026-05-08 16:11 29.99416 -90.27156 9 ft 129 kts 105°
2026-05-08 16:11 29.99150 -90.26035 475 ft 149 kts 104°
2026-05-08 16:12 29.98887 -90.24857 1278 ft 152 kts 104°
2026-05-08 16:12 29.98642 -90.23684 2069 ft 149 kts 107°
2026-05-08 16:12 29.98406 -90.22495 2704 ft 160 kts 109°
2026-05-08 16:12 29.98135 -90.21187 3170 ft 179 kts 109°
2026-05-08 16:13 29.97830 -90.19732 3671 ft 197 kts 109°
2026-05-08 16:13 29.97505 -90.18007 3680 ft 243 kts 106°
2026-05-08 16:13 29.97110 -90.16014 3720 ft 261 kts 107°
2026-05-08 16:13 29.96696 -90.13940 3918 ft 267 kts 107°
2026-05-08 16:14 29.96291 -90.11843 4018 ft 268 kts 107°
2026-05-08 16:14 29.95753 -90.09808 4023 ft 262 kts 121°
2026-05-08 16:14 29.94616 -90.08235 4595 ft 259 kts 146°
2026-05-08 16:14 29.93025 -90.07274 5707 ft 260 kts 166°
2026-05-08 16:15 29.91220 -90.07128 6695 ft 264 kts 191°
2026-05-08 16:15 29.89513 -90.07886 7701 ft 267 kts 214°
2026-05-08 16:15 29.88225 -90.09423 8748 ft 271 kts 238°
2026-05-08 16:15 29.87608 -90.11483 9832 ft 276 kts 261°
2026-05-08 16:16 29.87425 -90.13736 10518 ft 293 kts 263°
2026-05-08 16:16 29.87241 -90.16142 10878 ft 317 kts 263°
2026-05-08 16:16 29.87039 -90.18766 11179 ft 340 kts 263°
2026-05-08 16:16 29.86823 -90.21541 11764 ft 351 kts 263°
2026-05-08 16:17 29.86605 -90.24361 12584 ft 355 kts 262°
2026-05-08 16:17 29.86459 -90.26242 13162 ft 356 kts 262°
2026-05-08 16:17 29.86155 -90.30061 14259 ft 359 kts 262°
2026-05-08 16:17 29.85921 -90.32939 14978 ft 361 kts 262°
2026-05-08 16:18 29.85763 -90.34856 15447 ft 363 kts 262°
2026-05-08 16:18 29.85522 -90.37766 16148 ft 366 kts 263°
2026-05-08 16:18 29.85276 -90.40703 16833 ft 370 kts 263°
2026-05-08 16:18 29.85030 -90.43670 17533 ft 373 kts 263°
2026-05-08 16:19 29.84786 -90.46659 18237 ft 376 kts 263°
2026-05-08 16:19 29.84544 -90.49638 18846 ft 379 kts 263°
2026-05-08 16:19 29.84293 -90.52707 19484 ft 381 kts 263°
2026-05-08 16:19 29.84047 -90.55715 20113 ft 383 kts 264°
2026-05-08 16:20 29.83795 -90.58778 20739 ft 385 kts 264°
2026-05-08 16:20 29.83540 -90.61859 21345 ft 387 kts 264°
2026-05-08 16:20 29.83279 -90.64957 21927 ft 389 kts 264°
2026-05-08 16:20 29.83018 -90.68070 22489 ft 391 kts 264°
2026-05-08 16:21 29.82759 -90.71190 23032 ft 393 kts 264°
2026-05-08 16:21 29.82495 -90.74340 23550 ft 395 kts 264°
2026-05-08 16:21 29.82231 -90.77471 23901 ft 399 kts 264°
2026-05-08 16:21 29.81959 -90.80668 24240 ft 403 kts 264°
2026-05-08 16:22 29.81684 -90.83906 24625 ft 407 kts 264°
2026-05-08 16:22 29.81407 -90.87150 25018 ft 409 kts 264°
2026-05-08 16:22 29.81125 -90.90420 25410 ft 412 kts 264°
2026-05-08 16:22 29.80838 -90.93726 25808 ft 414 kts 264°
2026-05-08 16:23 29.80554 -90.97037 26202 ft 417 kts 264°
2026-05-08 16:23 29.80271 -91.00372 26602 ft 420 kts 264°
2026-05-08 16:23 29.79988 -91.03687 26996 ft 422 kts 264°
2026-05-08 16:23 29.79698 -91.07063 27398 ft 425 kts 264°
2026-05-08 16:24 29.79405 -91.10459 27786 ft 427 kts 264°
2026-05-08 16:24 29.79107 -91.13878 28186 ft 430 kts 264°
2026-05-08 16:24 29.78807 -91.17317 28543 ft 434 kts 264°
2026-05-08 16:24 29.78502 -91.20789 29013 ft 434 kts 264°
2026-05-08 16:25 29.78197 -91.24246 29586 ft 433 kts 263°
2026-05-08 16:25 29.77895 -91.27656 29944 ft 433 kts 263°
2026-05-08 16:25 29.77282 -91.34542 30027 ft 432 kts 263°
2026-05-08 16:26 29.76671 -91.41415 30027 ft 431 kts 263°
2026-05-08 16:26 29.76059 -91.48305 30632 ft 432 kts 263°
2026-05-08 16:27 29.75750 -91.51734 31169 ft 430 kts 263°
2026-05-08 16:27 29.75437 -91.55171 31688 ft 429 kts 263°
2026-05-08 16:27 29.75126 -91.58577 32245 ft 428 kts 263°
2026-05-08 16:27 29.74817 -91.61982 32768 ft 427 kts 263°
2026-05-08 16:28 29.74509 -91.65380 33290 ft 426 kts 263°
2026-05-08 16:28 29.74206 -91.68733 33799 ft 426 kts 263°
2026-05-08 16:28 29.73894 -91.72170 34292 ft 425 kts 263°
2026-05-08 16:28 29.73588 -91.75509 34802 ft 424 kts 263°
2026-05-08 16:29 29.73279 -91.78866 35389 ft 420 kts 263°
2026-05-08 16:29 29.72970 -91.82197 36005 ft 416 kts 263°
2026-05-08 16:29 29.72663 -91.85495 36609 ft 412 kts 264°
2026-05-08 16:29 29.72359 -91.88762 37208 ft 408 kts 264°
2026-05-08 16:30 29.72060 -91.91948 37751 ft 405 kts 263°
2026-05-08 16:30 29.71754 -91.95172 37955 ft 405 kts 263°
2026-05-08 16:30 29.71143 -92.01610 37990 ft 404 kts 263°
2026-05-08 16:31 29.70541 -92.08035 37991 ft 403 kts 263°
2026-05-08 16:31 29.69942 -92.14466 37991 ft 403 kts 263°
2026-05-08 16:32 29.69338 -92.20844 37988 ft 403 kts 263°
2026-05-08 16:32 29.68718 -92.27267 37991 ft 404 kts 263°
2026-05-08 16:33 29.68102 -92.33685 37991 ft 403 kts 263°
2026-05-08 16:33 29.67474 -92.40101 37996 ft 403 kts 263°
2026-05-08 16:34 29.66856 -92.46462 38001 ft 402 kts 263°
2026-05-08 16:34 29.66235 -92.52864 38000 ft 402 kts 263°
2026-05-08 16:35 29.65616 -92.59223 38000 ft 402 kts 263°
2026-05-08 16:35 29.64984 -92.65618 37994 ft 402 kts 263°
2026-05-08 16:36 29.64351 -92.72007 37992 ft 401 kts 262°
2026-05-08 16:36 29.63724 -92.78338 37994 ft 401 kts 262°
2026-05-08 16:37 29.63083 -92.84713 38000 ft 401 kts 262°
2026-05-08 16:37 29.62434 -92.91084 38001 ft 401 kts 263°
2026-05-08 16:38 29.62609 -92.97497 37999 ft 402 kts 271°
2026-05-08 16:38 29.63008 -93.03877 38000 ft 402 kts 271°
2026-05-08 16:39 29.63401 -93.10277 38020 ft 399 kts 269°
2026-05-08 16:39 29.63775 -93.16580 38021 ft 395 kts 269°
2026-05-08 16:40 29.64143 -93.22872 38019 ft 393 kts 269°
2026-05-08 16:40 29.64510 -93.29140 38015 ft 392 kts 269°
2026-05-08 16:41 29.64876 -93.35391 38011 ft 391 kts 269°
2026-05-08 16:42 29.65412 -93.44719 38011 ft 390 kts 269°
2026-05-08 16:42 29.65768 -93.50947 38007 ft 390 kts 269°
2026-05-08 16:43 29.66126 -93.57161 37998 ft 390 kts 269°
2026-05-08 16:43 29.66473 -93.63363 38006 ft 390 kts 269°
2026-05-08 16:44 29.66818 -93.69594 38002 ft 390 kts 269°
2026-05-08 16:44 29.67165 -93.75827 38005 ft 390 kts 269°
2026-05-08 16:45 29.67502 -93.82015 38042 ft 389 kts 269°
2026-05-08 16:45 29.67845 -93.88228 38032 ft 389 kts 269°
2026-05-08 16:46 29.68184 -93.94441 38023 ft 388 kts 269°
2026-05-08 16:46 29.68512 -94.00652 38020 ft 388 kts 269°
2026-05-08 16:47 29.69302 -94.06793 38016 ft 395 kts 277°
2026-05-08 16:47 29.70607 -94.12924 38011 ft 395 kts 277°
2026-05-08 16:48 29.71909 -94.19064 38007 ft 395 kts 277°
2026-05-08 16:48 29.73203 -94.25208 38023 ft 394 kts 277°
2026-05-08 16:49 29.74488 -94.31339 38024 ft 393 kts 277°
2026-05-08 16:49 29.75760 -94.37447 38045 ft 392 kts 277°
2026-05-08 16:50 29.77024 -94.43478 38004 ft 389 kts 277°
2026-05-08 16:50 29.78287 -94.49533 38005 ft 388 kts 277°
2026-05-08 16:51 29.79546 -94.55581 38006 ft 389 kts 277°
2026-05-08 16:51 29.80805 -94.61634 38022 ft 388 kts 277°
2026-05-08 16:52 29.82060 -94.67681 38014 ft 388 kts 276°
2026-05-08 16:52 29.83302 -94.73685 38011 ft 387 kts 276°
2026-05-08 16:53 29.85163 -94.82736 38005 ft 386 kts 276°
2026-05-08 16:53 29.86400 -94.88775 38007 ft 387 kts 276°
2026-05-08 16:54 29.87625 -94.94776 38007 ft 386 kts 276°
2026-05-08 16:54 29.88853 -95.00807 38029 ft 385 kts 276°
2026-05-08 16:55 29.90073 -95.06806 38026 ft 383 kts 276°
2026-05-08 16:55 29.91291 -95.12772 38026 ft 382 kts 276°
2026-05-08 16:56 29.92505 -95.18737 38028 ft 381 kts 276°
2026-05-08 16:56 29.93700 -95.24691 38028 ft 381 kts 276°
2026-05-08 16:57 29.94895 -95.30612 38024 ft 381 kts 276°
2026-05-08 16:57 29.95504 -95.36586 38041 ft 370 kts 262°
2026-05-08 16:58 29.94991 -95.42470 38027 ft 368 kts 261°
2026-05-08 16:58 29.94466 -95.48343 38020 ft 368 kts 261°
2026-05-08 16:59 29.93938 -95.54220 38013 ft 368 kts 261°
2026-05-08 16:59 29.93412 -95.60053 38012 ft 368 kts 261°
2026-05-08 17:00 29.92880 -95.65924 37961 ft 368 kts 261°
2026-05-08 17:00 29.92351 -95.71789 37996 ft 368 kts 260°
2026-05-08 17:01 29.91819 -95.77627 37997 ft 368 kts 260°
2026-05-08 17:01 29.91277 -95.83504 38003 ft 368 kts 260°
2026-05-08 17:02 29.90730 -95.89375 38011 ft 368 kts 260°
2026-05-08 17:02 29.90186 -95.95251 37999 ft 368 kts 260°
2026-05-08 17:03 29.89734 -96.00139 37987 ft 368 kts 260°
2026-05-08 17:03 29.89182 -96.06015 37961 ft 368 kts 260°
2026-05-08 17:04 29.88630 -96.11891 37945 ft 368 kts 260°
2026-05-08 17:04 29.88074 -96.17767 37906 ft 368 kts 259°
2026-05-08 17:05 29.87972 -96.20719 37887 ft 374 kts 270°
2026-05-08 17:05 29.88354 -96.23667 37876 ft 377 kts 272°
2026-05-08 17:05 29.89209 -96.29642 37864 ft 377 kts 272°
2026-05-08 17:06 29.90077 -96.35613 37846 ft 377 kts 272°
2026-05-08 17:06 29.90933 -96.41585 37845 ft 377 kts 272°
2026-05-08 17:07 29.91779 -96.47561 37855 ft 377 kts 272°
2026-05-08 17:07 29.92617 -96.53531 37834 ft 377 kts 272°
2026-05-08 17:08 29.93448 -96.59462 37845 ft 376 kts 272°
2026-05-08 17:08 29.94287 -96.65421 37840 ft 376 kts 272°
2026-05-08 17:09 29.95117 -96.71371 37875 ft 375 kts 272°
2026-05-08 17:09 29.95944 -96.77312 37903 ft 375 kts 272°
2026-05-08 17:10 29.96764 -96.83213 37929 ft 375 kts 272°
2026-05-08 17:10 29.97589 -96.89149 37968 ft 375 kts 272°
2026-05-08 17:11 29.98411 -96.95094 37974 ft 375 kts 272°
2026-05-08 17:11 29.99227 -97.01043 37983 ft 375 kts 272°
2026-05-08 17:12 30.00045 -97.07006 37978 ft 375 kts 272°
2026-05-08 17:12 30.00855 -97.12920 37963 ft 375 kts 272°
2026-05-08 17:13 30.01662 -97.18875 37957 ft 375 kts 272°
2026-05-08 17:13 30.02467 -97.24838 37943 ft 375 kts 272°
2026-05-08 17:14 30.03277 -97.30792 37947 ft 375 kts 272°
2026-05-08 17:14 30.04078 -97.36749 37928 ft 375 kts 272°
2026-05-08 17:15 30.04873 -97.42697 37923 ft 375 kts 272°
2026-05-08 17:15 30.05667 -97.48614 37923 ft 375 kts 272°
2026-05-08 17:16 30.06465 -97.54573 37964 ft 375 kts 272°
2026-05-08 17:16 30.07250 -97.60524 37973 ft 375 kts 272°
2026-05-08 17:17 30.08028 -97.66441 37972 ft 376 kts 272°
2026-05-08 17:17 30.08817 -97.72411 37971 ft 376 kts 272°
2026-05-08 17:18 30.09600 -97.78386 37975 ft 376 kts 272°
2026-05-08 17:18 30.10380 -97.84362 37975 ft 376 kts 272°
2026-05-08 17:19 30.11161 -97.90343 37988 ft 376 kts 272°
2026-05-08 17:19 30.11935 -97.96293 37993 ft 377 kts 272°
2026-05-08 17:20 30.12710 -98.02278 37999 ft 377 kts 272°
2026-05-08 17:20 30.13485 -98.08282 37985 ft 377 kts 272°
2026-05-08 17:21 30.14251 -98.14290 37980 ft 378 kts 272°
2026-05-08 17:21 30.15024 -98.20294 38010 ft 378 kts 272°
2026-05-08 17:22 30.15789 -98.26273 38001 ft 379 kts 272°
2026-05-08 17:22 30.16556 -98.32303 37994 ft 379 kts 272°
2026-05-08 17:23 30.17315 -98.38327 37987 ft 379 kts 272°
2026-05-08 17:23 30.18075 -98.44354 37982 ft 379 kts 272°
2026-05-08 17:24 30.18838 -98.50390 37975 ft 379 kts 272°
2026-05-08 17:24 30.19596 -98.56440 37976 ft 379 kts 272°
2026-05-08 17:25 30.20349 -98.62482 37974 ft 379 kts 272°
2026-05-08 17:25 30.21097 -98.68523 37968 ft 379 kts 272°
2026-05-08 17:26 30.21834 -98.74538 37983 ft 379 kts 272°
2026-05-08 17:26 30.22580 -98.80590 37975 ft 379 kts 272°
2026-05-08 17:27 30.23324 -98.86636 37978 ft 380 kts 272°
2026-05-08 17:27 30.24071 -98.92686 37970 ft 380 kts 272°
2026-05-08 17:28 30.24806 -98.98704 37966 ft 380 kts 272°
2026-05-08 17:28 30.25537 -99.04758 37967 ft 379 kts 272°
2026-05-08 17:29 30.26268 -99.10808 37974 ft 380 kts 272°
2026-05-08 17:29 30.27002 -99.16861 37970 ft 380 kts 272°
2026-05-08 17:30 30.27723 -99.22874 37966 ft 379 kts 272°
2026-05-08 17:30 30.28441 -99.28936 37956 ft 379 kts 272°
2026-05-08 17:31 30.29158 -99.34989 37955 ft 379 kts 272°
2026-05-08 17:31 30.29879 -99.41044 37950 ft 380 kts 272°
2026-05-08 17:32 30.30594 -99.47070 37975 ft 380 kts 272°
2026-05-08 17:32 30.31305 -99.53127 37977 ft 380 kts 271°
2026-05-08 17:33 30.32016 -99.59192 37989 ft 380 kts 271°
2026-05-08 17:33 30.32723 -99.65264 37999 ft 380 kts 271°
2026-05-08 17:34 30.33424 -99.71327 37990 ft 380 kts 271°
2026-05-08 17:34 30.34117 -99.77342 37990 ft 379 kts 271°
2026-05-08 17:35 30.34822 -99.83435 37994 ft 379 kts 271°
2026-05-08 17:35 30.35512 -99.89467 37979 ft 379 kts 271°
2026-05-08 17:36 30.36204 -99.95535 37971 ft 379 kts 271°
2026-05-08 17:36 30.36894 -100.01557 37959 ft 380 kts 271°
2026-05-08 17:37 30.37577 -100.07619 37949 ft 379 kts 271°
2026-05-08 17:37 30.38257 -100.13691 37937 ft 379 kts 271°
2026-05-08 17:38 30.38936 -100.19756 37931 ft 379 kts 271°
2026-05-08 17:38 30.39616 -100.25815 37948 ft 379 kts 271°
2026-05-08 17:39 30.40292 -100.31836 37956 ft 379 kts 271°
2026-05-08 17:39 30.40964 -100.37890 37967 ft 378 kts 271°
2026-05-08 17:40 30.41631 -100.43945 37981 ft 378 kts 271°
2026-05-08 17:40 30.42296 -100.49993 37995 ft 378 kts 271°
2026-05-08 17:41 30.42960 -100.56051 38010 ft 379 kts 271°
2026-05-08 17:41 30.43616 -100.62106 38032 ft 379 kts 271°
2026-05-08 17:42 30.44263 -100.68130 38026 ft 379 kts 271°
2026-05-08 17:42 30.44919 -100.74186 38021 ft 379 kts 271°
2026-05-08 17:43 30.45581 -100.80252 38013 ft 378 kts 271°
2026-05-08 17:43 30.46226 -100.86305 37998 ft 378 kts 271°
2026-05-08 17:44 30.47215 -100.92330 37985 ft 385 kts 278°
2026-05-08 17:44 30.48658 -100.98308 37971 ft 385 kts 278°
2026-05-08 17:45 30.49899 -101.03364 38005 ft 385 kts 278°
2026-05-08 17:45 30.51345 -101.09313 37993 ft 386 kts 278°
2026-05-08 17:46 30.52789 -101.15322 37993 ft 387 kts 278°
2026-05-08 17:46 30.54242 -101.21341 37996 ft 387 kts 278°
2026-05-08 17:47 30.55689 -101.27369 37943 ft 387 kts 278°
2026-05-08 17:47 30.56886 -101.32377 37963 ft 388 kts 278°
2026-05-08 17:48 30.58565 -101.39390 37952 ft 388 kts 278°
2026-05-08 17:48 30.60003 -101.45445 37949 ft 389 kts 278°
2026-05-08 17:49 30.61202 -101.50476 37947 ft 389 kts 278°
2026-05-08 17:49 30.62645 -101.56536 37947 ft 389 kts 278°
2026-05-08 17:50 30.64084 -101.62609 37944 ft 389 kts 278°
2026-05-08 17:50 30.65509 -101.68637 37961 ft 389 kts 278°
2026-05-08 17:51 30.66942 -101.74709 37948 ft 390 kts 278°
2026-05-08 17:51 30.68371 -101.80793 37943 ft 390 kts 278°
2026-05-08 17:52 30.69801 -101.86890 37973 ft 390 kts 278°
2026-05-08 17:53 30.71949 -101.96056 37921 ft 393 kts 278°
2026-05-08 17:53 30.73376 -102.02171 37915 ft 394 kts 278°
2026-05-08 17:54 30.74810 -102.08328 37906 ft 395 kts 278°
2026-05-08 17:54 30.76244 -102.14516 37897 ft 396 kts 278°
2026-05-08 17:55 30.77673 -102.20678 37891 ft 397 kts 278°
2026-05-08 17:55 30.79109 -102.26884 37890 ft 397 kts 278°
2026-05-08 17:56 30.80543 -102.33088 37889 ft 397 kts 278°
2026-05-08 17:56 30.81975 -102.39310 37882 ft 398 kts 278°
2026-05-08 17:57 30.83398 -102.45543 37881 ft 399 kts 278°
2026-05-08 17:57 30.84829 -102.51798 37873 ft 401 kts 278°
2026-05-08 17:58 30.86254 -102.58037 37901 ft 401 kts 278°
2026-05-08 17:58 30.87690 -102.64324 37928 ft 402 kts 278°
2026-05-08 17:59 30.89131 -102.70632 37959 ft 402 kts 278°
2026-05-08 17:59 30.90563 -102.76943 37990 ft 403 kts 279°
2026-05-08 18:00 30.91989 -102.83242 37990 ft 405 kts 279°
2026-05-08 18:00 30.94150 -102.92801 37851 ft 407 kts 279°
2026-05-08 18:01 30.95600 -102.99189 37855 ft 409 kts 280°
2026-05-08 18:01 30.97304 -103.05545 37858 ft 411 kts 282°
2026-05-08 18:02 30.98821 -103.10800 37866 ft 411 kts 283°
2026-05-08 18:02 31.00911 -103.18174 37875 ft 412 kts 282°
2026-05-08 18:03 31.02657 -103.24543 37877 ft 412 kts 282°
2026-05-08 18:03 31.04395 -103.30927 37877 ft 413 kts 282°
2026-05-08 18:04 31.06139 -103.37317 37888 ft 413 kts 282°
2026-05-08 18:04 31.07883 -103.43716 37905 ft 413 kts 282°
2026-05-08 18:05 31.09619 -103.50109 37961 ft 414 kts 282°
2026-05-08 18:05 31.11351 -103.56492 37919 ft 416 kts 282°
2026-05-08 18:06 31.13103 -103.62953 37906 ft 417 kts 282°
2026-05-08 18:06 31.14846 -103.69414 37909 ft 418 kts 282°
2026-05-08 18:07 31.16591 -103.75897 37902 ft 419 kts 282°
2026-05-08 18:07 31.18336 -103.82389 37896 ft 419 kts 282°
2026-05-08 18:08 31.20074 -103.88857 37900 ft 420 kts 281°
2026-05-08 18:08 31.21822 -103.95373 37894 ft 420 kts 281°
2026-05-08 18:09 31.23567 -104.01898 37897 ft 420 kts 281°
2026-05-08 18:09 31.25302 -104.08428 37896 ft 420 kts 281°
2026-05-08 18:10 31.27031 -104.14917 37896 ft 421 kts 281°
2026-05-08 18:10 31.28771 -104.21458 37909 ft 421 kts 281°
2026-05-08 18:11 31.30504 -104.28025 37877 ft 424 kts 282°
2026-05-08 18:11 31.32247 -104.34626 37863 ft 426 kts 282°
2026-05-08 18:12 31.33999 -104.41266 37866 ft 427 kts 282°
2026-05-08 18:12 31.35680 -104.47667 37857 ft 428 kts 282°
2026-05-08 18:13 31.37419 -104.54291 37854 ft 429 kts 282°
2026-05-08 18:13 31.39170 -104.60967 37866 ft 429 kts 281°
2026-05-08 18:14 31.40909 -104.67649 37872 ft 429 kts 281°
2026-05-08 18:14 31.42654 -104.74356 37876 ft 429 kts 281°
2026-05-08 18:15 31.44382 -104.81003 37875 ft 429 kts 281°
2026-05-08 18:15 31.46120 -104.87699 37873 ft 429 kts 281°
2026-05-08 18:16 31.47856 -104.94405 37886 ft 430 kts 282°
2026-05-08 18:16 31.49585 -105.01091 37853 ft 432 kts 282°
2026-05-08 18:17 31.51327 -105.07853 37847 ft 433 kts 282°
2026-05-08 18:17 31.53073 -105.14639 37850 ft 434 kts 282°
2026-05-08 18:18 31.54812 -105.21437 37854 ft 435 kts 282°
2026-05-08 18:18 31.56535 -105.28198 37862 ft 435 kts 282°
2026-05-08 18:19 31.58276 -105.35014 37854 ft 437 kts 283°
2026-05-08 18:19 31.60017 -105.41864 37852 ft 438 kts 282°
2026-05-08 18:20 31.61753 -105.48724 37856 ft 439 kts 283°
2026-05-08 18:20 31.63499 -105.55607 37863 ft 439 kts 283°
2026-05-08 18:21 31.65226 -105.62441 37868 ft 439 kts 283°
2026-05-08 18:21 31.66964 -105.69336 37863 ft 441 kts 284°
2026-05-08 18:22 31.68701 -105.76257 37851 ft 442 kts 284°
2026-05-08 18:22 31.70439 -105.83189 37847 ft 443 kts 284°
2026-05-08 18:23 31.72173 -105.90138 37850 ft 444 kts 284°
2026-05-08 18:23 31.73901 -105.97097 37856 ft 444 kts 284°
2026-05-08 18:24 31.75629 -106.04071 37895 ft 444 kts 285°
2026-05-08 18:24 31.77354 -106.11005 37930 ft 445 kts 285°
2026-05-08 18:25 31.79081 -106.18001 37974 ft 446 kts 285°
2026-05-08 18:25 31.80813 -106.25023 38020 ft 446 kts 285°
2026-05-08 18:26 31.81891 -106.32126 38033 ft 444 kts 274°
2026-05-08 18:26 31.82430 -106.39374 38029 ft 445 kts 275°
2026-05-08 18:27 31.82896 -106.45456 38010 ft 446 kts 275°
2026-05-08 18:27 31.83542 -106.53925 37977 ft 447 kts 275°
2026-05-08 18:28 31.84081 -106.61231 38039 ft 448 kts 275°
2026-05-08 18:28 31.84608 -106.68533 38042 ft 448 kts 275°
2026-05-08 18:29 31.85139 -106.75851 38039 ft 449 kts 276°
2026-05-08 18:29 31.85668 -106.83135 38027 ft 449 kts 276°
2026-05-08 18:30 31.86194 -106.90472 37841 ft 450 kts 276°
2026-05-08 18:30 31.86717 -106.97813 37849 ft 450 kts 276°
2026-05-08 18:31 31.87236 -107.05147 37851 ft 450 kts 276°
2026-05-08 18:31 31.87754 -107.12504 37849 ft 450 kts 276°
2026-05-08 18:32 31.88258 -107.19804 37858 ft 451 kts 276°
2026-05-08 18:32 31.88759 -107.27159 37861 ft 451 kts 276°
2026-05-08 18:33 31.89257 -107.34523 37872 ft 451 kts 276°
2026-05-08 18:33 31.89672 -107.40650 37862 ft 451 kts 277°
2026-05-08 18:34 31.90165 -107.48011 37876 ft 451 kts 277°
2026-05-08 18:34 31.90657 -107.55369 37880 ft 451 kts 277°
2026-05-08 18:35 31.91144 -107.62732 37889 ft 451 kts 277°
2026-05-08 18:35 31.91632 -107.70095 37891 ft 451 kts 277°
2026-05-08 18:36 31.92106 -107.77422 37873 ft 451 kts 277°
2026-05-08 18:36 31.92588 -107.84796 37870 ft 451 kts 277°
2026-05-08 18:37 31.93094 -107.92171 37888 ft 451 kts 277°
2026-05-08 18:37 31.93590 -107.99487 37885 ft 451 kts 277°
2026-05-08 18:38 31.94077 -108.06870 37896 ft 451 kts 277°
2026-05-08 18:38 31.94563 -108.14239 37910 ft 451 kts 277°
2026-05-08 18:39 31.95045 -108.21605 37907 ft 451 kts 277°
2026-05-08 18:39 31.95515 -108.28976 37908 ft 451 kts 277°
2026-05-08 18:40 31.95978 -108.36306 37912 ft 451 kts 277°
2026-05-08 18:40 31.96448 -108.43681 37891 ft 452 kts 277°
2026-05-08 18:41 31.96914 -108.51065 37909 ft 452 kts 277°
2026-05-08 18:41 31.97371 -108.58442 37928 ft 451 kts 277°
2026-05-08 18:42 31.97826 -108.65814 37929 ft 451 kts 277°
2026-05-08 18:42 31.98271 -108.73141 37934 ft 451 kts 277°
2026-05-08 18:43 31.98714 -108.80514 37910 ft 450 kts 277°
2026-05-08 18:43 31.99154 -108.87873 37926 ft 450 kts 277°
2026-05-08 18:44 31.99587 -108.95230 37936 ft 449 kts 277°
2026-05-08 18:44 32.00015 -109.02535 37935 ft 449 kts 277°
2026-05-08 18:45 32.00443 -109.09878 37929 ft 449 kts 277°
2026-05-08 18:45 32.00864 -109.17206 37925 ft 448 kts 277°
2026-05-08 18:46 32.01282 -109.24530 37935 ft 447 kts 277°
2026-05-08 18:46 32.01692 -109.31861 37941 ft 447 kts 277°
2026-05-08 18:47 32.01890 -109.35449 37547 ft 444 kts 277°
2026-05-08 18:47 32.02093 -109.39094 36789 ft 445 kts 277°
2026-05-08 18:47 32.02300 -109.42757 35952 ft 449 kts 278°
2026-05-08 18:47 32.02508 -109.46451 35055 ft 453 kts 278°
2026-05-08 18:48 32.02713 -109.50175 34157 ft 458 kts 278°
2026-05-08 18:48 32.02918 -109.53946 33120 ft 463 kts 278°
2026-05-08 18:48 32.03124 -109.57758 32049 ft 467 kts 278°
2026-05-08 18:48 32.03331 -109.61600 31004 ft 471 kts 278°
2026-05-08 18:49 32.03535 -109.65418 29956 ft 474 kts 278°
2026-05-08 18:49 32.03740 -109.69305 28665 ft 477 kts 278°
2026-05-08 18:49 32.03946 -109.73228 27319 ft 481 kts 277°
2026-05-08 18:49 32.04153 -109.77189 25913 ft 486 kts 277°
2026-05-08 18:50 32.04362 -109.81191 24466 ft 492 kts 277°
2026-05-08 18:50 32.04571 -109.85223 23604 ft 491 kts 277°
2026-05-08 18:50 32.04779 -109.89251 23219 ft 493 kts 277°
2026-05-08 18:50 32.04986 -109.93275 22823 ft 491 kts 277°
2026-05-08 18:51 32.05189 -109.97288 22434 ft 488 kts 276°
2026-05-08 18:51 32.05389 -110.01271 22042 ft 484 kts 276°
2026-05-08 18:51 32.05584 -110.05224 21658 ft 481 kts 276°
2026-05-08 18:51 32.05779 -110.09146 21292 ft 477 kts 276°
2026-05-08 18:52 32.05971 -110.13045 20914 ft 474 kts 276°
2026-05-08 18:52 32.06157 -110.16916 20531 ft 470 kts 276°
2026-05-08 18:52 32.06340 -110.20707 20202 ft 466 kts 276°
2026-05-08 18:52 32.06525 -110.24510 19843 ft 463 kts 276°
2026-05-08 18:53 32.06706 -110.28284 19490 ft 460 kts 276°
2026-05-08 18:53 32.06884 -110.32033 19141 ft 456 kts 276°
2026-05-08 18:53 32.07058 -110.35762 18819 ft 454 kts 276°
2026-05-08 18:53 32.07229 -110.39468 18477 ft 451 kts 276°
2026-05-08 18:54 32.07399 -110.43152 18114 ft 448 kts 276°
2026-05-08 18:54 32.07568 -110.46803 17721 ft 445 kts 276°
2026-05-08 18:54 32.07733 -110.50443 17353 ft 444 kts 276°
2026-05-08 18:54 32.07896 -110.54075 16960 ft 443 kts 276°
2026-05-08 18:55 32.08221 -110.61314 16223 ft 440 kts 275°
2026-05-08 18:55 32.08384 -110.64871 15880 ft 439 kts 275°
2026-05-08 18:55 32.08545 -110.68461 15519 ft 438 kts 275°
2026-05-08 18:56 32.08700 -110.72041 15173 ft 436 kts 275°
2026-05-08 18:56 32.08851 -110.75619 15017 ft 436 kts 275°
2026-05-08 18:56 32.09002 -110.79189 15060 ft 436 kts 275°
2026-05-08 18:56 32.09153 -110.82761 15063 ft 435 kts 275°
2026-05-08 18:57 32.09304 -110.86338 15076 ft 436 kts 275°
2026-05-08 18:57 32.09402 -110.88701 15076 ft 436 kts 275°
2026-05-08 18:57 32.09602 -110.93479 15072 ft 436 kts 275°
2026-05-08 18:57 32.09889 -110.97025 15068 ft 433 kts 284°
2026-05-08 18:58 32.10956 -111.00310 15071 ft 427 kts 302°
2026-05-08 18:58 32.12787 -111.03015 15074 ft 422 kts 318°
2026-05-08 18:58 32.14920 -111.05345 15066 ft 422 kts 320°
2026-05-08 18:58 32.17150 -111.07600 15017 ft 421 kts 323°
2026-05-08 18:59 32.19422 -111.09787 15017 ft 422 kts 323°
2026-05-08 18:59 32.21702 -111.11972 15022 ft 423 kts 323°
2026-05-08 18:59 32.24084 -111.13997 15011 ft 422 kts 325°
2026-05-08 18:59 32.26388 -111.16156 15006 ft 423 kts 323°
2026-05-08 19:00 32.27919 -111.17570 14998 ft 422 kts 327°
2026-05-08 19:00 32.31278 -111.19953 14990 ft 418 kts 338°
2026-05-08 19:00 32.33975 -111.21106 14965 ft 416 kts 343°
2026-05-08 19:00 32.36684 -111.22199 14285 ft 408 kts 343°
2026-05-08 19:01 32.39376 -111.23277 13300 ft 405 kts 343°
2026-05-08 19:01 32.42038 -111.24320 12338 ft 401 kts 343°
2026-05-08 19:01 32.44631 -111.25326 11003 ft 385 kts 343°
2026-05-08 19:01 32.47151 -111.26278 9740 ft 370 kts 343°
2026-05-08 19:02 32.49511 -111.27147 9141 ft 339 kts 343°
2026-05-08 19:02 32.51664 -111.27925 8799 ft 308 kts 342°
2026-05-08 19:02 32.53536 -111.28886 8518 ft 283 kts 330°
2026-05-08 19:02 32.55122 -111.30193 7916 ft 274 kts 322°
2026-05-08 19:03 32.56501 -111.31708 7482 ft 262 kts 314°
2026-05-08 19:03 32.57693 -111.33219 7363 ft 240 kts 313°
2026-05-08 19:03 32.58783 -111.34605 7221 ft 219 kts 313°
2026-05-08 19:03 32.59783 -111.35879 6850 ft 204 kts 313°
2026-05-08 19:04 32.60680 -111.37074 6340 ft 188 kts 304°
2026-05-08 19:04 32.61090 -111.38467 5792 ft 175 kts 272°
2026-05-08 19:04 32.60759 -111.39790 5354 ft 167 kts 236°
2026-05-08 19:04 32.59853 -111.40583 4990 ft 161 kts 201°
2026-05-08 19:05 32.58793 -111.40646 4822 ft 148 kts 168°
2026-05-08 19:05 32.57876 -111.40116 4616 ft 146 kts 150°
2026-05-08 19:05 32.57024 -111.39449 4246 ft 146 kts 146°
2026-05-08 19:05 32.56252 -111.38697 3924 ft 145 kts 140°
2026-05-08 19:06 32.55527 -111.37860 3555 ft 147 kts 137°
2026-05-08 19:06 32.54787 -111.37014 3175 ft 149 kts 138°
2026-05-08 19:06 32.54043 -111.36127 2804 ft 152 kts 138°
2026-05-08 19:06 32.53291 -111.35277 2432 ft 146 kts 136°
2026-05-08 19:07 32.52602 -111.34455 2123 ft 138 kts 135°
2026-05-08 19:07 32.51947 -111.33666 1969 ft 135 kts 136°
2026-05-08 19:07 32.51298 -111.32908 1891 ft 119 kts 135°
2026-05-08 19:07 32.50831 -111.32361 1892 ft 73 kts 135°
2026-05-08 19:08 32.50514 -111.31987 1899 ft 56 kts 135°
2026-05-08 19:08 32.50362 -111.31791 1890 ft 16 kts 105°
2026-05-08 19:08 32.50398 -111.31741 1897 ft 9 kts 40°
2026-05-08 19:08 32.50468 -111.31702 1889 ft 14 kts 354°
2026-05-08 19:09 32.50536 -111.31758 1893 ft 0 kts 317°
2026-05-08 19:10 32.50554 -111.31778 1897 ft 8 kts 317°
2026-05-08 19:10 32.50611 -111.31842 1895 ft 14 kts 321°
2026-05-08 19:10 32.50706 -111.31812 1891 ft 15 kts 47°
2026-05-08 19:10 32.50716 -111.31798 1889 ft 0 kts 48°